Year,Month,Day,Hour,Minute,Value (Times are PST for temperature in C)
2018,06,17,00,00,17.20
2018,06,17,00,01,17.20
2018,06,17,00,02,17.20
2018,06,17,00,03,17.20
2018,06,17,00,04,17.20
2018,06,17,00,05,17.20
2018,06,17,00,06,17.20
2018,06,17,00,07,17.20
2018,06,17,00,08,17.20
2018,06,17,00,09,17.20
2018,06,17,00,10,17.20
2018,06,17,00,11,17.20
2018,06,17,00,12,17.30
2018,06,17,00,13,17.30
2018,06,17,00,14,17.40
2018,06,17,00,15,17.40
2018,06,17,00,16,17.50
2018,06,17,00,17,17.50
2018,06,17,00,18,17.50
2018,06,17,00,19,17.60
2018,06,17,00,20,17.60
2018,06,17,00,21,17.60
2018,06,17,00,22,17.60
2018,06,17,00,23,17.60
2018,06,17,00,24,17.60
2018,06,17,00,25,17.60
2018,06,17,00,26,17.70
2018,06,17,00,27,17.70
2018,06,17,00,28,17.70
2018,06,17,00,29,17.80
2018,06,17,00,30,17.80
2018,06,17,00,31,17.70
2018,06,17,00,32,17.70
2018,06,17,00,33,17.60
2018,06,17,00,34,17.50
2018,06,17,00,35,17.50
2018,06,17,00,36,17.40
2018,06,17,00,37,17.40
2018,06,17,00,38,17.40
2018,06,17,00,39,17.40
2018,06,17,00,40,17.40
2018,06,17,00,41,17.50
2018,06,17,00,42,17.50
2018,06,17,00,43,17.50
2018,06,17,00,44,17.40
2018,06,17,00,45,17.40
2018,06,17,00,46,17.40
2018,06,17,00,47,17.30
2018,06,17,00,48,17.30
2018,06,17,00,49,17.30
2018,06,17,00,50,17.30
2018,06,17,00,51,17.30
2018,06,17,00,52,17.20
2018,06,17,00,53,17.20
2018,06,17,00,54,17.20
2018,06,17,00,55,17.20
2018,06,17,00,56,17.20
2018,06,17,00,57,17.20
2018,06,17,00,58,17.20
2018,06,17,00,59,17.20
2018,06,17,01,00,17.20
2018,06,17,01,01,17.10
2018,06,17,01,02,17.10
2018,06,17,01,03,17.00
2018,06,17,01,04,17.00
2018,06,17,01,05,16.90
2018,06,17,01,06,16.90
2018,06,17,01,07,16.80
2018,06,17,01,08,16.80
2018,06,17,01,09,16.70
2018,06,17,01,10,16.60
2018,06,17,01,11,16.50
2018,06,17,01,12,16.40
2018,06,17,01,13,16.40
2018,06,17,01,14,16.30
2018,06,17,01,15,16.20
2018,06,17,01,16,16.10
2018,06,17,01,17,16.10
2018,06,17,01,18,16.00
2018,06,17,01,19,15.90
2018,06,17,01,20,15.80
2018,06,17,01,21,15.80
2018,06,17,01,22,15.70
2018,06,17,01,23,15.70
2018,06,17,01,24,15.60
2018,06,17,01,25,15.60
2018,06,17,01,26,15.50
2018,06,17,01,27,15.40
2018,06,17,01,28,15.40
2018,06,17,01,29,15.40
2018,06,17,01,30,15.30
2018,06,17,01,31,15.30
2018,06,17,01,32,15.20
2018,06,17,01,33,15.20
2018,06,17,01,34,15.20
2018,06,17,01,35,15.10
2018,06,17,01,36,15.10
2018,06,17,01,37,15.00
2018,06,17,01,38,15.00
2018,06,17,01,39,14.90
2018,06,17,01,40,14.90
2018,06,17,01,41,14.90
2018,06,17,01,42,14.80
2018,06,17,01,43,14.80
2018,06,17,01,44,14.80
2018,06,17,01,45,14.70
2018,06,17,01,46,14.70
2018,06,17,01,47,14.70
2018,06,17,01,48,14.60
2018,06,17,01,49,14.60
2018,06,17,01,50,14.60
2018,06,17,01,51,14.50
2018,06,17,01,52,14.50
2018,06,17,01,53,14.40
2018,06,17,01,54,14.40
2018,06,17,01,55,14.40
2018,06,17,01,56,14.40
2018,06,17,01,57,14.30
2018,06,17,01,58,14.30
2018,06,17,01,59,14.30
2018,06,17,02,00,14.20
2018,06,17,02,01,14.20
2018,06,17,02,02,14.20
2018,06,17,02,03,14.20
2018,06,17,02,04,14.10
2018,06,17,02,05,14.10
2018,06,17,02,06,14.10
2018,06,17,02,07,14.10
2018,06,17,02,08,14.00
2018,06,17,02,09,14.00
2018,06,17,02,10,14.00
2018,06,17,02,11,13.90
2018,06,17,02,12,13.90
2018,06,17,02,13,13.90
2018,06,17,02,14,13.90
2018,06,17,02,15,13.90
2018,06,17,02,16,13.80
2018,06,17,02,17,13.80
2018,06,17,02,18,13.80
2018,06,17,02,19,13.80
2018,06,17,02,20,13.80
2018,06,17,02,21,13.80
2018,06,17,02,22,13.80
2018,06,17,02,23,13.80
2018,06,17,02,24,13.70
2018,06,17,02,25,13.70
2018,06,17,02,26,13.70
2018,06,17,02,27,13.70
2018,06,17,02,28,13.70
2018,06,17,02,29,13.60
2018,06,17,02,30,13.60
2018,06,17,02,31,13.60
2018,06,17,02,32,13.60
2018,06,17,02,33,13.60
2018,06,17,02,34,13.60
2018,06,17,02,35,13.50
2018,06,17,02,36,13.50
2018,06,17,02,37,13.50
2018,06,17,02,38,13.50
2018,06,17,02,39,13.40
2018,06,17,02,40,13.40
2018,06,17,02,41,13.40
2018,06,17,02,42,13.40
2018,06,17,02,43,13.40
2018,06,17,02,44,13.40
2018,06,17,02,45,13.40
2018,06,17,02,46,13.30
2018,06,17,02,47,13.30
2018,06,17,02,48,13.30
2018,06,17,02,49,13.30
2018,06,17,02,50,13.20
2018,06,17,02,51,13.20
2018,06,17,02,52,13.20
2018,06,17,02,53,13.20
2018,06,17,02,54,13.10
2018,06,17,02,55,13.10
2018,06,17,02,56,13.10
2018,06,17,02,57,13.00
2018,06,17,02,58,13.00
2018,06,17,02,59,13.00
2018,06,17,03,00,12.90
2018,06,17,03,01,12.90
2018,06,17,03,02,12.90
2018,06,17,03,03,12.80
2018,06,17,03,04,12.80
2018,06,17,03,05,12.80
2018,06,17,03,06,12.80
2018,06,17,03,07,12.70
2018,06,17,03,08,12.70
2018,06,17,03,09,12.70
2018,06,17,03,10,12.70
2018,06,17,03,11,12.60
2018,06,17,03,12,12.60
2018,06,17,03,13,12.60
2018,06,17,03,14,12.60
2018,06,17,03,15,12.60
2018,06,17,03,16,12.60
2018,06,17,03,17,12.50
2018,06,17,03,18,12.50
2018,06,17,03,19,12.40
2018,06,17,03,20,12.40
2018,06,17,03,21,12.40
2018,06,17,03,22,12.40
2018,06,17,03,23,12.40
2018,06,17,03,24,12.30
2018,06,17,03,25,12.30
2018,06,17,03,26,12.30
2018,06,17,03,27,12.30
2018,06,17,03,28,12.30
2018,06,17,03,29,12.30
2018,06,17,03,30,12.30
2018,06,17,03,31,12.20
2018,06,17,03,32,12.20
2018,06,17,03,33,12.20
2018,06,17,03,34,12.20
2018,06,17,03,35,12.20
2018,06,17,03,36,12.20
2018,06,17,03,37,12.10
2018,06,17,03,38,12.10
2018,06,17,03,39,12.10
2018,06,17,03,40,12.10
2018,06,17,03,41,12.10
2018,06,17,03,42,12.10
2018,06,17,03,43,12.00
2018,06,17,03,44,12.00
2018,06,17,03,45,12.00
2018,06,17,03,46,12.00
2018,06,17,03,47,11.90
2018,06,17,03,48,11.90
2018,06,17,03,49,11.90
2018,06,17,03,50,11.90
2018,06,17,03,51,11.90
2018,06,17,03,52,11.90
2018,06,17,03,53,11.90
2018,06,17,03,54,11.80
2018,06,17,03,55,11.80
2018,06,17,03,56,11.80
2018,06,17,03,57,11.80
2018,06,17,03,58,11.80
2018,06,17,03,59,11.80
2018,06,17,04,00,11.70
2018,06,17,04,01,11.70
2018,06,17,04,02,11.70
2018,06,17,04,03,11.70
2018,06,17,04,04,11.70
2018,06,17,04,05,11.70
2018,06,17,04,06,11.60
2018,06,17,04,07,11.60
2018,06,17,04,08,11.60
2018,06,17,04,09,11.60
2018,06,17,04,10,11.60
2018,06,17,04,11,11.60
2018,06,17,04,12,11.50
2018,06,17,04,13,11.50
2018,06,17,04,14,11.50
2018,06,17,04,15,11.50
2018,06,17,04,16,11.50
2018,06,17,04,17,11.50
2018,06,17,04,18,11.40
2018,06,17,04,19,11.40
2018,06,17,04,20,11.40
2018,06,17,04,21,11.40
2018,06,17,04,22,11.40
2018,06,17,04,23,11.40
2018,06,17,04,24,11.40
2018,06,17,04,25,11.30
2018,06,17,04,26,11.30
2018,06,17,04,27,11.30
2018,06,17,04,28,11.30
2018,06,17,04,29,11.30
2018,06,17,04,30,11.30
2018,06,17,04,31,11.30
2018,06,17,04,32,11.30
2018,06,17,04,33,11.30
2018,06,17,04,34,11.30
2018,06,17,04,35,11.30
2018,06,17,04,36,11.30
2018,06,17,04,37,11.30
2018,06,17,04,38,11.30
2018,06,17,04,39,11.30
2018,06,17,04,40,11.30
2018,06,17,04,41,11.20
2018,06,17,04,42,11.20
2018,06,17,04,43,11.20
2018,06,17,04,44,11.20
2018,06,17,04,45,11.20
2018,06,17,04,46,11.20
2018,06,17,04,47,11.20
2018,06,17,04,48,11.20
2018,06,17,04,49,11.20
2018,06,17,04,50,11.20
2018,06,17,04,51,11.20
2018,06,17,04,52,11.20
2018,06,17,04,53,11.20
2018,06,17,04,54,11.10
2018,06,17,04,55,11.10
2018,06,17,04,56,11.10
2018,06,17,04,57,11.10
2018,06,17,04,58,11.10
2018,06,17,04,59,11.10
2018,06,17,05,00,11.10
2018,06,17,05,01,11.10
2018,06,17,05,02,11.10
2018,06,17,05,03,11.10
2018,06,17,05,04,11.10
2018,06,17,05,05,11.00
2018,06,17,05,06,11.00
2018,06,17,05,07,11.00
2018,06,17,05,08,11.00
2018,06,17,05,09,11.00
2018,06,17,05,10,11.00
2018,06,17,05,11,10.90
2018,06,17,05,12,10.90
2018,06,17,05,13,10.90
2018,06,17,05,14,10.90
2018,06,17,05,15,10.90
2018,06,17,05,16,10.90
2018,06,17,05,17,10.90
2018,06,17,05,18,10.90
2018,06,17,05,19,10.90
2018,06,17,05,20,10.90
2018,06,17,05,21,10.90
2018,06,17,05,22,10.90
2018,06,17,05,23,10.90
2018,06,17,05,24,10.90
2018,06,17,05,25,10.90
2018,06,17,05,26,10.90
2018,06,17,05,27,10.90
2018,06,17,05,28,11.00
2018,06,17,05,29,11.00
2018,06,17,05,30,11.00
2018,06,17,05,31,11.00
2018,06,17,05,32,11.00
2018,06,17,05,33,11.00
2018,06,17,05,34,11.00
2018,06,17,05,35,11.00
2018,06,17,05,36,11.00
2018,06,17,05,37,11.00
2018,06,17,05,38,11.00
2018,06,17,05,39,11.00
2018,06,17,05,40,11.00
2018,06,17,05,41,11.10
2018,06,17,05,42,11.10
2018,06,17,05,43,11.10
2018,06,17,05,44,11.10
2018,06,17,05,45,11.10
2018,06,17,05,46,11.10
2018,06,17,05,47,11.10
2018,06,17,05,48,11.00
2018,06,17,05,49,11.10
2018,06,17,05,50,11.00
2018,06,17,05,51,11.00
2018,06,17,05,52,11.00
2018,06,17,05,53,11.00
2018,06,17,05,54,11.00
2018,06,17,05,55,11.00
2018,06,17,05,56,11.00
2018,06,17,05,57,11.00
2018,06,17,05,58,11.00
2018,06,17,05,59,11.00
2018,06,17,06,00,11.10
2018,06,17,06,01,11.10
2018,06,17,06,02,11.10
2018,06,17,06,03,11.10
2018,06,17,06,04,11.10
2018,06,17,06,05,11.10
2018,06,17,06,06,11.10
2018,06,17,06,07,11.10
2018,06,17,06,08,11.10
2018,06,17,06,09,11.20
2018,06,17,06,10,11.20
2018,06,17,06,11,11.20
2018,06,17,06,12,11.30
2018,06,17,06,13,11.30
2018,06,17,06,14,11.30
2018,06,17,06,15,11.40
2018,06,17,06,16,11.40
2018,06,17,06,17,11.50
2018,06,17,06,18,11.50
2018,06,17,06,19,11.60
2018,06,17,06,20,11.60
2018,06,17,06,21,11.70
2018,06,17,06,22,11.70
2018,06,17,06,23,11.70
2018,06,17,06,24,11.80
2018,06,17,06,25,11.80
2018,06,17,06,26,11.90
2018,06,17,06,27,11.90
2018,06,17,06,28,11.90
2018,06,17,06,29,12.00
2018,06,17,06,30,12.10
2018,06,17,06,31,12.10
2018,06,17,06,32,12.20
2018,06,17,06,33,12.20
2018,06,17,06,34,12.30
2018,06,17,06,35,12.30
2018,06,17,06,36,12.40
2018,06,17,06,37,12.50
2018,06,17,06,38,12.60
2018,06,17,06,39,12.60
2018,06,17,06,40,12.70
2018,06,17,06,41,12.70
2018,06,17,06,42,12.70
2018,06,17,06,43,12.80
2018,06,17,06,44,12.80
2018,06,17,06,45,12.90
2018,06,17,06,46,12.90
2018,06,17,06,47,13.00
2018,06,17,06,48,13.00
2018,06,17,06,49,13.00
2018,06,17,06,50,13.10
2018,06,17,06,51,13.20
2018,06,17,06,52,13.20
2018,06,17,06,53,13.30
2018,06,17,06,54,13.30
2018,06,17,06,55,13.40
2018,06,17,06,56,13.50
2018,06,17,06,57,13.50
2018,06,17,06,58,13.60
2018,06,17,06,59,13.70
2018,06,17,07,00,13.70
2018,06,17,07,01,13.80
2018,06,17,07,02,13.90
2018,06,17,07,03,14.00
2018,06,17,07,04,14.00
2018,06,17,07,05,14.10
2018,06,17,07,06,14.20
2018,06,17,07,07,14.20
2018,06,17,07,08,14.30
2018,06,17,07,09,14.30
2018,06,17,07,10,14.40
2018,06,17,07,11,14.50
2018,06,17,07,12,14.50
2018,06,17,07,13,14.60
2018,06,17,07,14,14.60
2018,06,17,07,15,14.70
2018,06,17,07,16,14.70
2018,06,17,07,17,14.80
2018,06,17,07,18,14.80
2018,06,17,07,19,14.90
2018,06,17,07,20,14.90
2018,06,17,07,21,15.00
2018,06,17,07,22,15.10
2018,06,17,07,23,15.10
2018,06,17,07,24,15.20
2018,06,17,07,25,15.20
2018,06,17,07,26,15.30
2018,06,17,07,27,15.30
2018,06,17,07,28,15.40
2018,06,17,07,29,15.40
2018,06,17,07,30,15.50
2018,06,17,07,31,15.60
2018,06,17,07,32,15.60
2018,06,17,07,33,15.70
2018,06,17,07,34,15.70
2018,06,17,07,35,15.80
2018,06,17,07,36,15.90
2018,06,17,07,37,15.90
2018,06,17,07,38,16.00
2018,06,17,07,39,16.10
2018,06,17,07,40,16.20
2018,06,17,07,41,16.30
2018,06,17,07,42,16.30
2018,06,17,07,43,16.40
2018,06,17,07,44,16.50
2018,06,17,07,45,16.50
2018,06,17,07,46,16.60
2018,06,17,07,47,16.70
2018,06,17,07,48,16.80
2018,06,17,07,49,16.80
2018,06,17,07,50,16.90
2018,06,17,07,51,16.90
2018,06,17,07,52,16.90
2018,06,17,07,53,17.00
2018,06,17,07,54,17.00
2018,06,17,07,55,17.00
2018,06,17,07,56,17.10
2018,06,17,07,57,17.10
2018,06,17,07,58,17.20
2018,06,17,07,59,17.20
2018,06,17,08,00,17.30
2018,06,17,08,01,17.30
2018,06,17,08,02,17.30
2018,06,17,08,03,17.40
2018,06,17,08,04,17.40
2018,06,17,08,05,17.40
2018,06,17,08,06,17.40
2018,06,17,08,07,17.50
2018,06,17,08,08,17.50
2018,06,17,08,09,17.50
2018,06,17,08,10,17.60
2018,06,17,08,11,17.70
2018,06,17,08,12,17.80
2018,06,17,08,13,17.90
2018,06,17,08,14,18.00
2018,06,17,08,15,18.20
2018,06,17,08,16,18.20
2018,06,17,08,17,18.30
2018,06,17,08,18,18.40
2018,06,17,08,19,18.50
2018,06,17,08,20,18.60
2018,06,17,08,21,18.70
2018,06,17,08,22,18.80
2018,06,17,08,23,18.90
2018,06,17,08,24,19.00
2018,06,17,08,25,19.00
2018,06,17,08,26,19.10
2018,06,17,08,27,19.10
2018,06,17,08,28,19.10
2018,06,17,08,29,19.20
2018,06,17,08,30,19.20
2018,06,17,08,31,19.20
2018,06,17,08,32,19.20
2018,06,17,08,33,19.20
2018,06,17,08,34,19.20
2018,06,17,08,35,19.20
2018,06,17,08,36,19.20
2018,06,17,08,37,19.30
2018,06,17,08,38,19.30
2018,06,17,08,39,19.30
2018,06,17,08,40,19.40
2018,06,17,08,41,19.40
2018,06,17,08,42,19.40
2018,06,17,08,43,19.50
2018,06,17,08,44,19.50
2018,06,17,08,45,19.60
2018,06,17,08,46,19.70
2018,06,17,08,47,19.90
2018,06,17,08,48,20.00
2018,06,17,08,49,20.10
2018,06,17,08,50,20.30
2018,06,17,08,51,20.40
2018,06,17,08,52,20.40
2018,06,17,08,53,20.40
2018,06,17,08,54,20.40
2018,06,17,08,55,20.40
2018,06,17,08,56,20.40
2018,06,17,08,57,20.40
2018,06,17,08,58,20.40
2018,06,17,08,59,20.40
2018,06,17,09,00,20.50
2018,06,17,09,01,20.40
2018,06,17,09,02,20.50
2018,06,17,09,03,20.50
2018,06,17,09,04,20.50
2018,06,17,09,05,20.60
2018,06,17,09,06,20.60
2018,06,17,09,07,20.60
2018,06,17,09,08,20.60
2018,06,17,09,09,20.70
2018,06,17,09,10,20.70
2018,06,17,09,11,20.70
2018,06,17,09,12,20.70
2018,06,17,09,13,20.70
2018,06,17,09,14,20.70
2018,06,17,09,15,20.70
2018,06,17,09,16,20.80
2018,06,17,09,17,20.80
2018,06,17,09,18,20.80
2018,06,17,09,19,20.80
2018,06,17,09,20,20.80
2018,06,17,09,21,20.90
2018,06,17,09,22,21.00
2018,06,17,09,23,21.10
2018,06,17,09,24,21.10
2018,06,17,09,25,21.20
2018,06,17,09,26,21.20
2018,06,17,09,27,21.30
2018,06,17,09,28,21.30
2018,06,17,09,29,21.30
2018,06,17,09,30,21.30
2018,06,17,09,31,21.30
2018,06,17,09,32,21.30
2018,06,17,09,33,21.30
2018,06,17,09,34,21.40
2018,06,17,09,35,21.40
2018,06,17,09,36,21.40
2018,06,17,09,37,21.50
2018,06,17,09,38,21.50
2018,06,17,09,39,21.60
2018,06,17,09,40,21.70
2018,06,17,09,41,21.70
2018,06,17,09,42,21.70
2018,06,17,09,43,21.70
2018,06,17,09,44,21.70
2018,06,17,09,45,21.70
2018,06,17,09,46,21.70
2018,06,17,09,47,21.60
2018,06,17,09,48,21.60
2018,06,17,09,49,21.60
2018,06,17,09,50,21.60
2018,06,17,09,51,21.60
2018,06,17,09,52,21.60
2018,06,17,09,53,21.60
2018,06,17,09,54,21.70
2018,06,17,09,55,21.70
2018,06,17,09,56,21.70
2018,06,17,09,57,21.60
2018,06,17,09,58,21.60
2018,06,17,09,59,21.60
2018,06,17,10,00,21.60
2018,06,17,10,01,21.70
2018,06,17,10,02,21.70
2018,06,17,10,03,21.70
2018,06,17,10,04,21.70
2018,06,17,10,05,21.80
2018,06,17,10,06,21.90
2018,06,17,10,07,22.00
2018,06,17,10,08,22.00
2018,06,17,10,09,22.00
2018,06,17,10,10,21.90
2018,06,17,10,11,21.90
2018,06,17,10,12,21.80
2018,06,17,10,13,21.80
2018,06,17,10,14,21.80
2018,06,17,10,15,21.80
2018,06,17,10,16,21.80
2018,06,17,10,17,21.80
2018,06,17,10,18,21.90
2018,06,17,10,19,21.90
2018,06,17,10,20,21.80
2018,06,17,10,21,21.80
2018,06,17,10,22,21.80
2018,06,17,10,23,21.80
2018,06,17,10,24,21.90
2018,06,17,10,25,21.90
2018,06,17,10,26,22.00
2018,06,17,10,27,22.00
2018,06,17,10,28,22.10
2018,06,17,10,29,22.10
2018,06,17,10,30,22.10
2018,06,17,10,31,22.10
2018,06,17,10,32,22.10
2018,06,17,10,33,22.10
2018,06,17,10,34,22.10
2018,06,17,10,35,22.10
2018,06,17,10,36,22.10
2018,06,17,10,37,22.20
2018,06,17,10,38,22.20
2018,06,17,10,39,22.20
2018,06,17,10,40,22.20
2018,06,17,10,41,22.30
2018,06,17,10,42,22.30
2018,06,17,10,43,22.20
2018,06,17,10,44,22.20
2018,06,17,10,45,22.20
2018,06,17,10,46,22.20
2018,06,17,10,47,22.10
2018,06,17,10,48,22.10
2018,06,17,10,49,22.10
2018,06,17,10,50,22.10
2018,06,17,10,51,22.10
2018,06,17,10,52,22.10
2018,06,17,10,53,22.20
2018,06,17,10,54,22.20
2018,06,17,10,55,22.20
2018,06,17,10,56,22.20
2018,06,17,10,57,22.20
2018,06,17,10,58,22.20
2018,06,17,10,59,22.30
2018,06,17,11,00,22.30
2018,06,17,11,01,22.30
2018,06,17,11,02,22.40
2018,06,17,11,03,22.30
2018,06,17,11,04,22.30
2018,06,17,11,05,22.40
2018,06,17,11,06,22.40
2018,06,17,11,07,22.40
2018,06,17,11,08,22.40
2018,06,17,11,09,22.40
2018,06,17,11,10,22.50
2018,06,17,11,11,22.50
2018,06,17,11,12,22.60
2018,06,17,11,13,22.70
2018,06,17,11,14,22.70
2018,06,17,11,15,22.70
2018,06,17,11,16,22.60
2018,06,17,11,17,22.60
2018,06,17,11,18,22.60
2018,06,17,11,19,22.60
2018,06,17,11,20,22.60
2018,06,17,11,21,22.60
2018,06,17,11,22,22.60
2018,06,17,11,23,22.70
2018,06,17,11,24,22.70
2018,06,17,11,25,22.70
2018,06,17,11,26,22.80
2018,06,17,11,27,22.80
2018,06,17,11,28,22.90
2018,06,17,11,29,23.00
2018,06,17,11,30,23.00
2018,06,17,11,31,23.10
2018,06,17,11,32,23.10
2018,06,17,11,33,23.10
2018,06,17,11,34,23.10
2018,06,17,11,35,23.10
2018,06,17,11,36,23.20
2018,06,17,11,37,23.20
2018,06,17,11,38,23.30
2018,06,17,11,39,23.40
2018,06,17,11,40,23.40
2018,06,17,11,41,23.40
2018,06,17,11,42,23.50
2018,06,17,11,43,23.50
2018,06,17,11,44,23.50
2018,06,17,11,45,23.60
2018,06,17,11,46,23.60
2018,06,17,11,47,23.70
2018,06,17,11,48,23.70
2018,06,17,11,49,23.70
2018,06,17,11,50,23.70
2018,06,17,11,51,23.60
2018,06,17,11,52,23.70
2018,06,17,11,53,23.70
2018,06,17,11,54,23.80
2018,06,17,11,55,23.90
2018,06,17,11,56,24.00
2018,06,17,11,57,24.10
2018,06,17,11,58,24.10
2018,06,17,11,59,24.10
2018,06,17,12,00,24.10
2018,06,17,12,01,24.10
2018,06,17,12,02,24.00
2018,06,17,12,03,24.00
2018,06,17,12,04,24.00
2018,06,17,12,05,24.00
2018,06,17,12,06,24.20
2018,06,17,12,07,24.30
2018,06,17,12,08,24.40
2018,06,17,12,09,24.50
2018,06,17,12,10,24.50
2018,06,17,12,11,24.20
2018,06,17,12,12,23.90
2018,06,17,12,13,23.70
2018,06,17,12,14,23.50
2018,06,17,12,15,23.40
2018,06,17,12,16,23.40
2018,06,17,12,17,23.40
2018,06,17,12,18,23.40
2018,06,17,12,19,23.30
2018,06,17,12,20,23.20
2018,06,17,12,21,23.20
2018,06,17,12,22,23.20
2018,06,17,12,23,23.30
2018,06,17,12,24,23.30
2018,06,17,12,25,23.30
2018,06,17,12,26,23.40
2018,06,17,12,27,23.40
2018,06,17,12,28,23.50
2018,06,17,12,29,23.60
2018,06,17,12,30,23.60
2018,06,17,12,31,23.60
2018,06,17,12,32,23.60
2018,06,17,12,33,23.60
2018,06,17,12,34,23.60
2018,06,17,12,35,23.60
2018,06,17,12,36,23.70
2018,06,17,12,37,23.70
2018,06,17,12,38,23.70
2018,06,17,12,39,23.70
2018,06,17,12,40,23.70
2018,06,17,12,41,23.80
2018,06,17,12,42,23.80
2018,06,17,12,43,23.70
2018,06,17,12,44,23.60
2018,06,17,12,45,23.50
2018,06,17,12,46,23.40
2018,06,17,12,47,23.30
2018,06,17,12,48,23.30
2018,06,17,12,49,23.30
2018,06,17,12,50,23.30
2018,06,17,12,51,23.30
2018,06,17,12,52,23.30
2018,06,17,12,53,23.20
2018,06,17,12,54,23.10
2018,06,17,12,55,23.10
2018,06,17,12,56,23.00
2018,06,17,12,57,22.90
2018,06,17,12,58,22.90
2018,06,17,12,59,23.00
2018,06,17,13,00,23.00
2018,06,17,13,01,23.10
2018,06,17,13,02,23.10
2018,06,17,13,03,23.10
2018,06,17,13,04,23.20
2018,06,17,13,05,23.20
2018,06,17,13,06,23.30
2018,06,17,13,07,23.30
2018,06,17,13,08,23.30
2018,06,17,13,09,23.40
2018,06,17,13,10,23.50
2018,06,17,13,11,23.60
2018,06,17,13,12,23.80
2018,06,17,13,13,23.90
2018,06,17,13,14,24.00
2018,06,17,13,15,24.10
2018,06,17,13,16,24.20
2018,06,17,13,17,24.40
2018,06,17,13,18,24.50
2018,06,17,13,19,24.60
2018,06,17,13,20,24.60
2018,06,17,13,21,24.70
2018,06,17,13,22,24.60
2018,06,17,13,23,24.50
2018,06,17,13,24,24.50
2018,06,17,13,25,24.40
2018,06,17,13,26,24.40
2018,06,17,13,27,24.30
2018,06,17,13,28,24.30
2018,06,17,13,29,24.40
2018,06,17,13,30,24.40
2018,06,17,13,31,24.40
2018,06,17,13,32,24.50
2018,06,17,13,33,24.60
2018,06,17,13,34,24.70
2018,06,17,13,35,24.80
2018,06,17,13,36,24.80
2018,06,17,13,37,24.70
2018,06,17,13,38,24.70
2018,06,17,13,39,24.60
2018,06,17,13,40,24.70
2018,06,17,13,41,24.70
2018,06,17,13,42,24.80
2018,06,17,13,43,24.80
2018,06,17,13,44,24.80
2018,06,17,13,45,24.90
2018,06,17,13,46,25.00
2018,06,17,13,47,25.10
2018,06,17,13,48,25.10
2018,06,17,13,49,25.20
2018,06,17,13,50,25.30
2018,06,17,13,51,25.40
2018,06,17,13,52,25.50
2018,06,17,13,53,25.60
2018,06,17,13,54,25.80
2018,06,17,13,55,25.80
2018,06,17,13,56,25.80
2018,06,17,13,57,25.80
2018,06,17,13,58,25.80
2018,06,17,13,59,25.90
2018,06,17,14,00,25.90
2018,06,17,14,01,25.90
2018,06,17,14,02,26.00
2018,06,17,14,03,26.00
2018,06,17,14,04,26.00
2018,06,17,14,05,26.00
2018,06,17,14,06,26.00
2018,06,17,14,07,26.00
2018,06,17,14,08,26.00
2018,06,17,14,09,26.10
2018,06,17,14,10,26.10
2018,06,17,14,11,26.10
2018,06,17,14,12,26.10
2018,06,17,14,13,26.00
2018,06,17,14,14,26.00
2018,06,17,14,15,26.00
2018,06,17,14,16,26.00
2018,06,17,14,17,26.10
2018,06,17,14,18,25.90
2018,06,17,14,19,25.80
2018,06,17,14,20,25.70
2018,06,17,14,21,25.60
2018,06,17,14,22,25.60
2018,06,17,14,23,25.60
2018,06,17,14,24,25.60
2018,06,17,14,25,25.60
2018,06,17,14,26,25.70
2018,06,17,14,27,25.80
2018,06,17,14,28,25.80
2018,06,17,14,29,25.80
2018,06,17,14,30,25.90
2018,06,17,14,31,25.90
2018,06,17,14,32,25.90
2018,06,17,14,33,25.90
2018,06,17,14,34,25.90
2018,06,17,14,35,26.00
2018,06,17,14,36,26.00
2018,06,17,14,37,26.00
2018,06,17,14,38,25.90
2018,06,17,14,39,25.90
2018,06,17,14,40,25.90
2018,06,17,14,41,25.80
2018,06,17,14,42,25.70
2018,06,17,14,43,25.70
2018,06,17,14,44,25.70
2018,06,17,14,45,25.70
2018,06,17,14,46,25.80
2018,06,17,14,47,25.80
2018,06,17,14,48,25.90
2018,06,17,14,49,25.90
2018,06,17,14,50,25.90
2018,06,17,14,51,25.90
2018,06,17,14,52,26.00
2018,06,17,14,53,26.00
2018,06,17,14,54,26.00
2018,06,17,14,55,26.00
2018,06,17,14,56,26.00
2018,06,17,14,57,26.00
2018,06,17,14,58,26.00
2018,06,17,14,59,25.90
2018,06,17,15,00,25.90
2018,06,17,15,01,25.90
2018,06,17,15,02,25.80
2018,06,17,15,03,25.80
2018,06,17,15,04,25.80
2018,06,17,15,05,25.90
2018,06,17,15,06,26.00
2018,06,17,15,07,26.00
2018,06,17,15,08,26.10
2018,06,17,15,09,26.20
2018,06,17,15,10,26.30
2018,06,17,15,11,26.30
2018,06,17,15,12,26.30
2018,06,17,15,13,26.30
2018,06,17,15,14,26.30
2018,06,17,15,15,26.30
2018,06,17,15,16,26.30
2018,06,17,15,17,26.30
2018,06,17,15,18,26.30
2018,06,17,15,19,26.30
2018,06,17,15,20,26.30
2018,06,17,15,21,26.20
2018,06,17,15,22,26.20
2018,06,17,15,23,26.30
2018,06,17,15,24,26.30
2018,06,17,15,25,26.40
2018,06,17,15,26,26.40
2018,06,17,15,27,26.50
2018,06,17,15,28,26.50
2018,06,17,15,29,26.60
2018,06,17,15,30,26.60
2018,06,17,15,31,26.60
2018,06,17,15,32,26.60
2018,06,17,15,33,26.60
2018,06,17,15,34,26.60
2018,06,17,15,35,26.70
2018,06,17,15,36,26.70
2018,06,17,15,37,26.80
2018,06,17,15,38,26.90
2018,06,17,15,39,27.00
2018,06,17,15,40,27.00
2018,06,17,15,41,27.10
2018,06,17,15,42,27.10
2018,06,17,15,43,27.10
2018,06,17,15,44,27.10
2018,06,17,15,45,27.00
2018,06,17,15,46,26.90
2018,06,17,15,47,26.90
2018,06,17,15,48,26.80
2018,06,17,15,49,26.80
2018,06,17,15,50,26.80
2018,06,17,15,51,26.80
2018,06,17,15,52,26.80
2018,06,17,15,53,26.80
2018,06,17,15,54,26.80
2018,06,17,15,55,26.90
2018,06,17,15,56,26.90
2018,06,17,15,57,26.90
2018,06,17,15,58,26.90
2018,06,17,15,59,26.90
2018,06,17,16,00,26.90
2018,06,17,16,01,26.90
2018,06,17,16,02,26.90
2018,06,17,16,03,26.90
2018,06,17,16,04,26.90
2018,06,17,16,05,27.00
2018,06,17,16,06,26.90
2018,06,17,16,07,26.90
2018,06,17,16,08,26.90
2018,06,17,16,09,26.90
2018,06,17,16,10,26.90
2018,06,17,16,11,26.80
2018,06,17,16,12,26.80
2018,06,17,16,13,26.70
2018,06,17,16,14,26.60
2018,06,17,16,15,26.50
2018,06,17,16,16,26.40
2018,06,17,16,17,26.30
2018,06,17,16,18,26.20
2018,06,17,16,19,26.20
2018,06,17,16,20,26.20
2018,06,17,16,21,26.20
2018,06,17,16,22,26.20
2018,06,17,16,23,26.20
2018,06,17,16,24,26.30
2018,06,17,16,25,26.40
2018,06,17,16,26,26.50
2018,06,17,16,27,26.50
2018,06,17,16,28,26.60
2018,06,17,16,29,26.60
2018,06,17,16,30,26.60
2018,06,17,16,31,26.70
2018,06,17,16,32,26.80
2018,06,17,16,33,26.80
2018,06,17,16,34,26.90
2018,06,17,16,35,26.90
2018,06,17,16,36,27.00
2018,06,17,16,37,27.10
2018,06,17,16,38,27.10
2018,06,17,16,39,27.20
2018,06,17,16,40,27.20
2018,06,17,16,41,27.20
2018,06,17,16,42,27.20
2018,06,17,16,43,27.20
2018,06,17,16,44,27.10
2018,06,17,16,45,27.00
2018,06,17,16,46,27.00
2018,06,17,16,47,26.90
2018,06,17,16,48,26.90
2018,06,17,16,49,26.80
2018,06,17,16,50,26.80
2018,06,17,16,51,26.70
2018,06,17,16,52,26.70
2018,06,17,16,53,26.60
2018,06,17,16,54,26.60
2018,06,17,16,55,26.70
2018,06,17,16,56,26.70
2018,06,17,16,57,26.80
2018,06,17,16,58,26.80
2018,06,17,16,59,26.80
2018,06,17,17,00,26.90
2018,06,17,17,01,26.80
2018,06,17,17,02,26.80
2018,06,17,17,03,26.80
2018,06,17,17,04,26.80
2018,06,17,17,05,26.80
2018,06,17,17,06,26.80
2018,06,17,17,07,26.70
2018,06,17,17,08,26.70
2018,06,17,17,09,26.70
2018,06,17,17,10,26.70
2018,06,17,17,11,26.70
2018,06,17,17,12,26.80
2018,06,17,17,13,26.80
2018,06,17,17,14,26.80
2018,06,17,17,15,26.80
2018,06,17,17,16,26.90
2018,06,17,17,17,27.00
2018,06,17,17,18,27.10
2018,06,17,17,19,27.20